Location: B
(0.0000°N, 0.0000°E)
Time: 04:33:34
(UTC+02:00)

Daily predictions for brighter satellites

Satellite Brightness Start Highest point End
(mag) Time Altitude Azimuth Time Altitude Azimuth Time Altitude Azimuth
Atlas Centaur 2 4.5 04:53:01 28° N 04:53:01 28° N 04:57:59 10° NNE
CZ-3 R/B 4.3 03:53:50 10° SW 04:54:46 59° SSE 05:06:25 10° E
ADEOS II 3.9 05:21:49 10° NE 05:26:04 25° ESE 05:26:16 25° ESE
SPELTRA 4.5 05:28:56 34° NE 05:28:56 34° NE 05:34:57 10° E
Cosmos 1943 Rocket 4.3 05:27:27 18° ESE 05:28:39 19° ESE 05:32:25 10° ENE
Hubble Space Telescope 3.7 05:32:39 14° E 05:32:39 14° E 05:33:21 10° E
Centaur D-1AR AC-41 3.9 05:37:35 66° N 05:37:35 66° N 05:41:28 10° ENE
Cosmos 2082 Rocket 3.7 05:42:09 10° N 05:47:15 34° ENE 05:52:19 10° SE
CENTAUR R/B 3.0 05:42:31 10° NNW 05:53:06 48° S 05:58:41 10° SSE
ADEOS Rocket 3.9 05:49:06 10° NNE 05:54:51 47° ESE 05:59:08 20° SSE
Cosmos 1666 4.2 06:00:50 36° NE 06:00:50 36° NE 06:03:26 10° NNE
Milstar 3 Cent rocket 3.1 05:58:05 58° W 05:59:59 79° NNW 06:14:31 10° ENE
Cosmos 2058 Rocket 3.8 06:08:54 45° N 06:08:54 45° N 06:11:57 10° N
USA 215 3.4 06:01:58 10° NE 06:08:25 66° SE 06:10:54 39° SSW
FALCON 9 R/B 3.3 06:13:47 22° SSE 06:13:47 22° SSE 06:16:36 10° SE
Meteor 2-9 Rocket 4.2 06:09:58 42° S 06:11:52 77° E 06:17:29 10° N
Tsikada Rocket 4.2 06:08:31 10° N 06:14:41 70° E 06:20:58 10° S
Lacrosse 5 3.7 06:12:25 17° SSE 06:14:55 25° ESE 06:19:03 10° ENE
Timation 2 Rocket 3.8 06:09:51 10° NNW 06:15:41 59° WSW 06:21:36 10° S
Cosmos 1066 Rocket 4.3 06:11:18 10° N 06:16:35 68° E 06:21:55 10° SSE
Lacrosse 5 rocket 4.0 06:17:54 10° SSE 06:19:37 12° ESE 06:21:18 10° E
Genesis I 4.4 06:22:56 31° SSE 06:24:06 40° ESE 06:27:51 10° NE
H-2A R/B 3.2 06:26:26 11° SE 06:26:26 11° SE 06:26:36 10° SE
Cosmos 1486 Rocket 4.3 06:19:47 10° N 06:25:03 67° ENE 06:30:19 10° SSE
Cosmos 1833 Rocket 3.0 06:19:46 10° N 06:25:19 66° ENE 06:30:53 10° SSE
Okean-O 4.2 06:23:02 10° NNW 06:25:07 22° NW 06:25:07 22° NW
OTV 4 1.7 06:28:41 40° E 06:28:41 40° E 06:30:55 10° ESE
Thor Agena Rocket 3.4 06:26:17 12° S 06:31:07 67° WSW 06:36:16 10° NNW
Cosmos 2233 Rocket 4.3 06:30:56 39° WSW 06:31:58 42° W 06:37:48 10° NNW
ARIANE 5 R/B 2.3 06:33:07 32° ESE 06:33:07 32° ESE 06:35:01 10° E
Cosmos 2369 Rocket 3.6 06:36:03 21° WNW 06:36:03 21° WNW 06:39:32 10° NNW
OAO 1 Rocket 4.4 06:34:23 43° WSW 06:36:03 70° NW 06:41:23 10° NE
MOZ.5/SAFIR/RUBIN 5/SL-8 4.0 06:35:53 44° WSW 06:36:16 45° WSW 06:40:49 10° NNW
Cosmos 2228 3.2 06:38:22 46° WSW 06:38:52 48° W 06:43:06 10° NNW
Tiangong 1 3.3 06:51:13 14° S 06:51:13 14° S 06:51:51 10° SSE
Ariane Rocket 2.9 06:49:26 10° N 06:54:26 67° WNW 06:59:17 11° SSW
CZ-4 R/B 4.1 06:52:24 10° NE 06:55:28 20° ESE 06:58:33 10° SSE
Cosmos 1812 Rocket 3.4 06:52:07 10° S 06:56:28 82° W 07:00:50 10° N
H-2A ROCKET BODY 2.0 06:58:49 20° S 06:58:49 20° S 07:00:41 10° SE
USA 234 3.4 06:53:42 10° SSE 06:59:56 48° SW 07:06:10 10° NW
OAO 2 Rocket 4.1 06:58:16 24° WSW 06:59:59 29° SW 07:04:20 10° SSE
CSL-04 Rocket 3.7 06:55:19 10° NNE 07:00:52 89° ESE 07:06:27 10° SSW
ATLAS 5 CENTAUR R/B 3.0 06:58:17 10° NW 07:04:11 37° WSW 07:10:07 10° S
ADEOS II 3.4 07:01:44 10° NNW 07:05:31 20° WNW 07:07:14 17° WSW
ARIANE 44LP R/B 3.3 07:04:29 24° WSW 07:06:04 59° S 07:14:46 10° E
Hubble Space Telescope 1.3 07:08:08 17° W 07:10:51 38° SSW 07:14:46 10° SE
Cosmos 1943 Rocket 3.1 07:09:02 17° WSW 07:12:06 28° WNW 07:16:42 10° NNW
OAO 3 Rocket 3.1 07:09:04 17° SW 07:12:37 83° SE 07:17:17 10° NE
Sakura Rocket 4.3 07:08:17 10° WNW 07:14:26 65° SSW 07:23:08 10° SE
ISS -1.6 07:13:20 16° W 07:14:38 19° NW 07:17:03 10° N
Meteor 1-31 Rocket 4.4 07:12:44 10° NW 07:15:23 18° WNW 07:16:49 15° WSW
Intelsat 3F5 C 4.2 07:14:39 18° SW 07:16:51 69° SSE 07:20:14 10° ENE
IRS-1A Rocket 4.3 07:16:40 10° N 07:22:13 76° WNW 07:27:56 10° SSW
COBE Rocket 3.8 07:17:30 10° N 07:22:15 82° W 07:27:11 10° SSW
ARIANE 5 R/B 3.7 06:51:00 10° W 07:23:46 82° N 07:27:55 10° E
SEDSat Delta rocket 4.3 07:18:57 13° WSW 07:24:47 61° NNW 07:31:30 10° NE
Intelsat 5-1 Rocket 3.6 07:15:42 11° SW 07:25:23 44° SSE 07:29:24 10° E
Cosmos 1503 Rocket 4.1 07:21:07 10° NNW 07:26:12 56° WSW 07:31:22 10° S
GPS 2-05 Rocket1 3.9 07:26:48 11° W 07:29:30 29° NW 07:32:24 10° NNE
Cosmos 2082 Rocket 3.6 07:27:38 10° WNW 07:31:02 16° WSW 07:34:25 10° SW
Cosmos 1818 4.2 07:34:21 10° SW 07:39:17 36° WNW 07:44:14 10° N
